星链-35002 (STARLINK-35002)

导读

STARLINK-35002是美国于2025年8月22日发射的星链卫星,隶属于SpaceX公司的星链星座项目。星链计划旨在构建全球卫星互联网星座,为全球多地提供高速低延迟宽带网络服务。该卫星入轨后,将进一步扩充星链星座规模,提升星座的全球覆盖能力与服务稳定性,推动全球互联网络基础设施建设。

Basic Information
目录编号:
65291
目录名称:
STARLINK-35002
国际标识:
2025-184U
轨道中心:
EARTH
卫星名称:
星链-35002
卫星全名:
星链-35002 (STARLINK-35002)
卫星状态:
在轨 (已飞行378 天)
发射日期:
2025-08-22 UTC
国别 :
美国 (US)
星等 :
--
Orbit Information
数据来源 国际轨道数据
星历时间: 2026-09-02T21:48:29+0800
1天前
查看轨道信息
半长轴: 6843.673km
偏心率: 0.0000826
轨道倾角: 97.283°
近地点辐角 52.658°
升交点赤经 293.745°
平近点角 307.473°
近地点: 464.97km
远地点: 466.102km
周期: 93.906分钟
每日圈数: 15.334476
Detailed Information
固有亮度:
5
最大亮度:
2.5
卫星平台:
Starlink V1.0
覆盖范围:
全球
运营商:
太空探索技术公司
运营商所在国:
美国
制造商(研发单位):
太空探索技术公司
制造商所在国:
美国
使用方式:
暂无
Satellite Introduction
Starlink 计划是 SpaceX 推出的全球卫星互联网项目,通过发射低轨道卫星,为全球尤其是偏远地区提供高速、低延迟的互联网服务。自 2019 年起,Starlink 已部署数千颗卫星,旨在缩小全球数字鸿沟,推动互联网普及。该项目还为军事、航空等行业提供通信支持,带来广泛经济效益。
2D Orbit Map
3D Orbit Map
Orbit Altitude Analysis Chart
Orbit Inclination Analysis Chart
Orbit Comprehensive Analysis Chart
View Comprehensive Chart
Conjunction Data List
Event ID Objects TCA Miss Dist (km) Collision Risk Probability Collision Risk Index (CRI) Action
CDM_260904-085406-529106-541222
2026-09-04T
08:54:40+0000
2.407 km
极远距离
1.879524E-6 低风险 0.4
CDM_260903-051605-210806-529121
2026-09-03T
05:16:14+0000
2.183 km
极远距离
1.658494E-6 低风险 0.39
CDM_260830-124506-350706-529121
2026-08-30T
12:45:24+0000
2.735 km
极远距离
1.414666E-6 低风险 0.38
CDM_260902-112405-478306-529121
2026-09-02T
11:24:27+0000
2.993 km
极远距离
7.996233E-7 极低风险 0.33